#timestamp,LO_Frequency,Hit,StdDev 
1583359215.3,286047001.8,N
1583359235.1,286046999.8,N
1583359255.9,286047000.6,N
1583359275.7,286046999.0,N
1583359295.6,286047000.5,N
1583359315.4,286046999.7,N
1583359335.2,286047005.6,Y
1583359355.1,286047003.5,P
1583359356.0,286047003.5,P
1583359375.8,286047001.7,N
1583359395.7,286047004.2,Y
1583359415.5,286047001.5,P
1583359435.3,286047003.8,P
1583359455.2,286047005.7,P
1583359475.0,286047000.1,N
1583359475.9,286047000.1,N
1583359495.7,286046993.3,Y
1583359515.6,286046991.4,P
1583359535.4,286046988.8,N
1583359555.3,286046990.1,N
1583359575.1,286046992.3,N
1583359595.8,286046996.3,N
1583359615.7,286046997.5,N
1583359635.5,286046996.5,N
1583359655.4,286046998.9,N
1583359675.2,286047000.3,N
1583359695.0,286047002.7,N
1583359695.9,286047002.7,N
1583359715.8,286046998.8,N
1583359735.6,286046999.5,N
1583359755.4,286046996.9,N
1583359775.3,286046999.0,N
1583359795.1,286046997.6,N
1583359815.9,286046992.3,N
1583359835.7,286046994.8,N
1583359855.5,286046992.3,N
1583359875.4,286046992.2,N
1583359895.2,286046995.8,N
1583359915.0,286046996.1,N
1583359915.9,286046996.1,N
1583359935.8,286046995.1,N
1583359955.6,286046998.5,N
1583359975.5,286047000.1,N
1583359995.3,286047001.4,N
1583360015.1,286046998.4,N
1583360035.9,286046997.3,N
1583360055.7,286046992.8,N
1583360075.6,286046990.4,N
1583360095.4,286046991.6,N
1583360115.2,286046988.7,Y
1583360135.1,286046991.7,P
1583360136.0,286046991.7,P
1583360155.8,286046997.8,N
1583360175.6,286046998.9,N
1583360195.5,286047004.1,N
1583360215.3,286047003.9,N
1583360235.2,286047003.4,N
1583360255.9,286047006.8,N
1583360275.7,286047007.3,N
1583360295.6,286047005.1,N
1583360315.4,286047004.6,N
1583360335.2,286047002.5,N
1583360355.1,286047001.4,N
1583360356.0,286047001.4,N
1583360375.8,286047000.3,N
1583360395.7,286046997.1,N
1583360415.5,286046997.4,N
1583360435.3,286046999.6,N
1583360455.2,286046999.9,N
1583360475.0,286047001.8,N
1583360475.9,286047001.8,N
1583360495.8,286047003.8,N
1583360515.6,286047003.6,N
1583360535.4,286047005.2,N
1583360555.3,286047006.9,N
1583360575.1,286047006.9,N
1583360595.8,286047007.1,N
1583360615.7,286047008.8,N
1583360635.5,286047009.6,N
1583360655.4,286047009.7,N
1583360675.2,286047008.2,N
1583360695.0,286047004.9,N
1583360695.9,286047004.9,N
1583360715.8,286047007.2,N
1583360735.6,286047007.2,N
1583360755.5,286047009.1,N
1583360775.3,286047010.2,N
1583360795.1,286047010.6,N
1583360815.9,286047009.6,N
1583360835.7,286047012.1,Y
1583360855.5,286047006.6,P
1583360875.4,286047007.0,P
1583360895.2,286047007.2,P
1583360915.1,286047005.8,Y
1583360916.0,286047005.8,P
1583360935.8,286046995.5,P
1583360955.6,286046994.8,N
1583360975.5,286046993.3,N
1583360995.3,286046993.8,N
1583361015.2,286046997.6,N
1583361035.9,286046998.3,N
1583361055.7,286046999.9,N
1583361075.6,286046998.1,N
1583361095.4,286047002.8,N
1583361115.2,286047002.4,N
1583361135.1,286047002.2,N
1583361136.0,286047002.2,N
1583361155.8,286047003.2,N
1583361175.7,286047008.3,N
1583361195.5,286047009.1,N
1583361215.3,286047001.5,N
1583361235.2,286047002.3,N
1583361255.0,286047000.1,N
1583361255.9,286047000.1,N
1583361275.8,286047002.3,N
1583361295.6,286047003.8,N
1583361315.4,286047003.2,N
1583361335.3,286047007.4,N
1583361355.1,286047006.2,N
1583361375.8,286047008.2,N
1583361395.7,286047011.6,N
1583361415.5,286047008.1,N
1583361435.4,286047010.9,N
1583361455.2,286047012.3,N
1583361475.0,286047010.1,N
1583361475.9,286047010.1,N
1583361495.8,286047011.8,N
1583361515.6,286047010.1,N
1583361535.5,286047006.4,N
1583361555.3,286047008.7,N
1583361575.1,286047009.6,N
1583361595.9,286047010.1,N
1583361615.7,286047009.5,N
1583361635.5,286047010.6,N
1583361655.4,286047012.0,Y
1583361675.2,286047005.0,P
1583361695.1,286047006.5,P
1583361696.0,286047006.5,P
1583361715.8,286047007.8,Y
1583361735.6,286047003.8,P
1583361755.5,286047000.3,N
1583361775.3,286047001.1,N
1583361795.2,286046995.1,N
1583361815.9,286046993.7,N
1583361835.7,286046995.7,N
1583361855.6,286046997.8,N
1583361875.4,286046999.6,N
1583361895.2,286047000.2,N
1583361915.1,286047004.4,N
1583361916.0,286047004.4,N
1583361935.8,286047005.5,N
1583361955.7,286047009.0,N
1583361975.5,286047009.4,N
1583361995.3,286047009.9,N
1583362015.2,286047012.4,N
1583362035.0,286047006.5,N
1583362035.9,286047006.5,N
1583362055.8,286047003.6,N
1583362075.6,286047005.9,N
1583362095.4,286047002.1,N
1583362115.3,286047004.1,N
1583362135.1,286047004.9,N
1583362155.8,286047006.3,N
1583362175.7,286047007.3,N
1583362195.5,286047008.9,N
1583362215.4,286047010.0,N
1583362235.2,286047013.8,N
1583362255.0,286047012.7,N
1583362255.9,286047012.7,N
1583362275.8,286047010.9,N
1583362295.6,286047013.9,N
1583362315.4,286047015.6,N
1583362335.3,286047017.2,Y
1583362355.1,286047007.6,P
1583362375.9,286047000.4,N
1583362395.7,286047000.8,N
1583362415.5,286047000.2,N
1583362435.4,286047001.7,N
1583362455.2,286047001.3,N
1583362475.0,286047003.5,N
1583362476.0,286047003.5,N
1583362495.8,286047005.2,N
1583362515.6,286047005.0,N
1583362535.5,286047006.7,N
1583362555.3,286047003.1,N
1583362575.1,286047003.1,N
1583362595.9,286047002.6,N
1583362615.7,286047001.4,N
1583362635.6,286047001.7,N
1583362655.4,286047005.5,N
1583362675.2,286047007.0,Y
1583362695.1,286047003.5,P
1583362696.0,286047003.5,P
1583362715.8,286047003.0,P
1583362735.7,286047007.0,Y
1583362755.5,286047005.4,P
1583362775.3,286047007.3,P
1583362795.2,286047007.2,P
